Weather History for Fort Myers, FL

Change the Weather History Date:

Saturday, December 3, 2011

  Actual Average Record
Temperature  
Mean Temperature 70 °F 69 °F  
Max Temperature 80 °F 79 °F 88 °F (1978)
Min Temperature 60 °F 59 °F 38 °F (1910)
Degree Days  
Heating Degree Days 0 1  
Month to date heating degree days 4 3  
Since 1 July heating degree days 8 21  
Cooling Degree Days 5 5  
Month to date cooling degree days 7 15  
Year to date cooling degree days 4101 3878  
Growing Degree Days 20 (Base 50)    
Moisture  
Dew Point 56 °F    
Average Humidity 65    
Maximum Humidity 84    
Minimum Humidity 42    
Precipitation  
Precipitation 0.00 in 0.04 in 1.24 in (1905)
Month to date precipitation 0.00 0.13  
Year to date precipitation 65.41 54.35  
Sea Level Pressure  
Sea Level Pressure 30.27 in    
Wind  
Wind Speed 10 mph (ENE)    
Max Wind Speed 22 mph    
Max Gust Speed 30 mph    
Visibility 10 miles    
Events      
T = Trace of Precipitation, MM = Missing Value Source: NWS Daily Summary

Daily Weather History Graph

Daily Weather History Graph

Search for Another Location

Airport:

Trip Planner

Search our weather history database for the weather conditions in past years. The results will help you decide how hot, cold, wet, or windy it might be!

Date:

Astronomy

Dec. 03, 2011 Rise Set
Actual Time 6:59 AM EST 5:34 PM EST
Civil Twilight 6:34 AM EST 5:59 PM EST
Nautical Twilight 6:06 AM EST 6:28 PM EST
Astronomical Twilight 5:37 AM EST 6:56 PM EST
Moon 1:10 PM EST (12/3) 12:57 AM EST (12/3)
Length of Visible Light 11h 24m
Length of Day
10h 34m
Waxing Gibbous, 62% of the Moon is Illuminated
Dec 3
Waxing Gibbous
Dec 10
Full
Dec 17
Last Quarter
Dec 24
New
Jan 1
First Quarter

Hourly Weather History & Observations

Time (EST) Temp. Heat Index Dew Point Humidity Pressure Visibility Wind Dir Wind Speed Gust Speed Precip Events Conditions
12:53 AM 61.0 °F - 54.0 °F 78% 30.28 in 10.0 mi NNE 5.8 mph - N/A   Partly Cloudy
1:53 AM 61.0 °F - 54.0 °F 78% 30.27 in 10.0 mi NNE 8.1 mph - N/A   Mostly Cloudy
2:53 AM 60.1 °F - 55.0 °F 83% 30.27 in 10.0 mi NNE 5.8 mph - N/A   Overcast
3:53 AM 60.1 °F - 55.0 °F 83% 30.27 in 10.0 mi NNE 4.6 mph - N/A   Overcast
4:53 AM 61.0 °F - 55.0 °F 81% 30.27 in 10.0 mi NE 5.8 mph - N/A   Mostly Cloudy
5:53 AM 62.1 °F - 55.0 °F 78% 30.28 in 10.0 mi NE 6.9 mph - N/A   Overcast
6:53 AM 61.0 °F - 55.0 °F 81% 30.29 in 10.0 mi NE 6.9 mph - N/A   Scattered Clouds
7:53 AM 62.1 °F - 55.0 °F 78% 30.30 in 10.0 mi ENE 8.1 mph - 0.01 in   Clear
8:53 AM 66.9 °F - 57.0 °F 70% 30.31 in 10.0 mi ENE 10.4 mph - N/A   Clear
9:53 AM 73.0 °F - 57.0 °F 57% 30.30 in 10.0 mi ENE 12.7 mph - N/A   Clear
10:53 AM 75.9 °F - 55.9 °F 50% 30.29 in 10.0 mi East 13.8 mph 19.6 mph N/A   Scattered Clouds
11:53 AM 78.1 °F - 55.9 °F 46% 30.27 in 10.0 mi ESE 15.0 mph 23.0 mph N/A   Mostly Cloudy
12:53 PM 77.0 °F - 55.0 °F 47% 30.24 in 10.0 mi ENE 13.8 mph 28.8 mph N/A   Mostly Cloudy
1:53 PM 80.1 °F 80.2 °F 55.9 °F 43% 30.22 in 10.0 mi East 10.4 mph 19.6 mph N/A   Scattered Clouds
3:53 PM 77.0 °F - 55.0 °F 47% 30.22 in 10.0 mi ENE 17.3 mph 24.2 mph N/A   Mostly Cloudy
4:53 PM 75.9 °F - 54.0 °F 46% 30.23 in 10.0 mi ENE 12.7 mph 19.6 mph N/A   Scattered Clouds
5:53 PM 73.0 °F - 57.0 °F 57% 30.24 in 10.0 mi East 12.7 mph - N/A   Scattered Clouds
6:53 PM 71.1 °F - 57.0 °F 61% 30.25 in 10.0 mi ENE 8.1 mph - N/A   Scattered Clouds
7:53 PM 71.1 °F - 57.0 °F 61% 30.26 in 10.0 mi ENE 9.2 mph - N/A   Overcast
8:53 PM 70.0 °F - 57.0 °F 63% 30.27 in 10.0 mi ENE 10.4 mph - N/A   Mostly Cloudy
9:53 PM 69.1 °F - 55.9 °F 63% 30.27 in 10.0 mi ENE 8.1 mph - N/A   Overcast
10:53 PM 66.0 °F - 55.9 °F 70% 30.26 in 10.0 mi ENE 5.8 mph - N/A   Mostly Cloudy
11:53 PM 64.9 °F - 55.9 °F 73% 30.24 in 10.0 mi NE 4.6 mph - N/A   Clear